Prescott, AZ

1:14 PM MST on July 23, 2017 (GMT -0700)
Love

Weather History for KPRC - July, 2013

Change the Weather History Date:

Friday, July 5, 2013

  Actual Average Record
Temperature  
Mean Temperature 80 °F 75 °F  
Max Temperature 91 °F 90 °F 101 °F (2007)
Min Temperature 69 °F 61 °F 50 °F (2000)
Degree Days  
Heating Degree Days 0    
Month to date heating degree days 0  
Since 1 July heating degree days 0  
Cooling Degree Days 15    
Month to date cooling degree days 84  
Year to date cooling degree days 443  
Growing Degree Days 30 (Base 50)    
Moisture  
Dew Point 51 °F    
Average Humidity 37    
Maximum Humidity 57    
Minimum Humidity 21    
Precipitation  
Precipitation 0.01 in 0.05 in 0.53 in (2014)
Month to date precipitation 0.08 0.21  
Year to date precipitation 2.60 5.14  
Sea Level Pressure  
Sea Level Pressure 29.75 in    
Wind  
Wind Speed 9 mph (South)    
Max Wind Speed 23 mph    
Max Gust Speed 30 mph    
Visibility 10 miles    
Events Rain    
T = Trace of Precipitation, MM = Missing Value Source: NWS Daily Summary

Daily Weather History Graph

Daily Weather History Graph

Search for Another Location

Airport or City:

Trip Planner

Search our weather history database for the weather conditions in past years. The results will help you decide how hot, cold, wet, or windy it might be!

Date:

Astronomy

Jul. 05, 2013 Rise Set
Actual Time 5:22 AM MST 7:46 PM MST
Civil Twilight 4:53 AM MST 8:15 PM MST
Nautical Twilight 4:17 AM MST 8:51 PM MST
Astronomical Twilight 3:37 AM MST 9:30 PM MST
Moon 3:22 AM MST (7/5) 5:46 PM MST (7/5)
Length of Visible Light 15h 22m
Length of Day
14h 23m
Waning Crescent, 6% of the Moon is Illuminated
Jul 5
Waning Crescent
Jul 8
New
Jul 15
First Quarter
Jul 22
Full
Jul 29
Last Quarter

Hourly Weather History & Observations

Time (MST) Temp. Dew Point Humidity Pressure Visibility Wind Dir Wind Speed Gust Speed Precip Events Conditions
12:53 AM 78.1 °F 51.1 °F 39% 29.73 in 10.0 mi South 8.1 mph - N/A   Clear
1:53 AM 77.0 °F 52.0 °F 42% 29.73 in 10.0 mi SSW 9.2 mph - N/A   Clear
2:53 AM 75.9 °F 52.0 °F 43% 29.73 in 10.0 mi South 6.9 mph - N/A   Clear
3:53 AM 73.9 °F 52.0 °F 46% 29.73 in 10.0 mi South 4.6 mph - N/A   Clear
4:53 AM 72.0 °F 52.0 °F 49% 29.74 in 10.0 mi SSE 3.5 mph - N/A   Clear
5:53 AM 69.1 °F 53.1 °F 57% 29.76 in 10.0 mi South 4.6 mph - N/A   Clear
6:53 AM 75.9 °F 53.1 °F 45% 29.76 in 10.0 mi South 5.8 mph - N/A   Mostly Cloudy
7:53 AM 78.1 °F 53.1 °F 42% 29.79 in 10.0 mi ESE 8.1 mph - N/A   Scattered Clouds
8:53 AM 81.0 °F 52.0 °F 36% 29.79 in 10.0 mi ESE 13.8 mph 18.4 mph N/A   Scattered Clouds
9:53 AM 84.9 °F 51.1 °F 31% 29.78 in 10.0 mi ESE 17.3 mph 25.3 mph N/A   Scattered Clouds
10:53 AM 84.0 °F 50.0 °F 31% 29.78 in 10.0 mi SE 23.0 mph 29.9 mph N/A   Mostly Cloudy
11:53 AM 81.0 °F 50.0 °F 34% 29.82 in 10.0 mi SSW 12.7 mph - N/A   Mostly Cloudy
12:53 PM 73.9 °F 57.9 °F 57% 29.83 in 10.0 mi SSE 10.4 mph - 0.01 in Rain Light Rain
1:53 PM 82.0 °F 52.0 °F 35% 29.77 in 10.0 mi Calm Calm - 0.00 in   Scattered Clouds
2:53 PM 89.1 °F 45.0 °F 22% 29.71 in 10.0 mi SW 10.4 mph 18.4 mph N/A   Scattered Clouds
3:53 PM 91.0 °F 46.9 °F 22% 29.70 in 10.0 mi South 11.5 mph 17.3 mph N/A   Scattered Clouds
4:53 PM 90.0 °F 48.0 °F 24% 29.71 in 10.0 mi SW 13.8 mph 20.7 mph N/A   Clear
5:53 PM 88.0 °F 48.0 °F 25% 29.72 in 10.0 mi SW 15.0 mph 20.7 mph N/A   Clear
6:53 PM 86.0 °F 48.0 °F 27% 29.70 in 10.0 mi WSW 15.0 mph - N/A   Clear
7:53 PM 82.9 °F 48.9 °F 31% 29.71 in 10.0 mi SW 6.9 mph - N/A   Clear
8:53 PM 80.1 °F 50.0 °F 35% 29.73 in 10.0 mi SW 5.8 mph - N/A   Clear
9:53 PM 78.1 °F 50.0 °F 37% 29.75 in 10.0 mi SSW 6.9 mph - N/A   Clear
10:53 PM 75.0 °F 51.1 °F 43% 29.78 in 10.0 mi South 5.8 mph - N/A   Clear
11:53 PM 75.9 °F 51.1 °F 42% 29.78 in 10.0 mi South 8.1 mph - N/A   Clear